Aérodrome :
LOGIN :

S'inscrire | Disclaimer

   EN    FR    IT 

 










Légende :    VFR   VFR Marginal   IFR   IFR Intensif   IFR Très Intensif
Visi : 
Plafond : 
>= 8 km
>= 3000ft
5 à 8 km
1000 à 3000 ft
1500m à 5 km
500 à 1000 ft
800 à 1500m
200 à 500 ft
< 800m
< 200 ft
Symboles :   Orages  Brouillard  Fortes neiges  Fortes précipitations  Vent > 20 kt
SIGMETs :   Divers  Orages  Givrage  Turbulence  Onde Orograph.  Cendres Volcan.







- Altitude de l'aérodrome : 909 ft
- Code IATA : KSF


EDVK - Kassel Calden

DERNIER METAR :
  • 171620Z VRB02KT 9999 -RA BKN025 OVC032 03/02 Q1021

METARs EXPIRÉS :
  • 171550Z 18005KT 130V210 9999 SCT025 OVC051 03/02 Q1020
  • 171520Z 21005KT 9999 SCT024 OVC043 03/02 Q1020
  • 171450Z 21006KT 9999 SCT012 OVC023 03/02 Q1019
  • 171420Z 20008KT 160V230 9999 SCT012 BKN024 BKN040 04/02 Q1019
  • 171350Z 19008KT 9999 BKN012 BKN040 03/02 Q1019

TAF TAF EDVK
Valide du 17 à 15h jusqu'au 18 à 00h UTC


171400Z 1715/1724 19007KT 9999 SCT008 BKN015
TEMPO 1715/1721 3000 RADZ BKN008
Pas de NOTAMs connus pour ce terrain.



MET'MAP, la Météo Aéronautique d'un coup d'oeil ! - Copyright ORBIFLY Décembre 2007 - Disclaimer

ORBIFLY MET'MAP TEAM :

Programmation & Développement : Alexandra Zaïnal
Conception & Développement : Baudouin d'Aumeries
Co-Programmation & Développement : Marc-Olivier Méhu
Soutien technique & logistique : Manuel Goepfert

Contact : metmap@orbifly.com




SOURCES & CREDITS :

   NOAA